Regional Weather Roundup
Issued by NWS

Home | Current Version | Previous Version | Text Only | Print | Product List | Glossary On
Versions: 1 2 3 4 5 6 7 8 9 10 11 12 13 14 15 16 17 18 19 20 21 22 23 24 25 26 27
000
ASUS44 KLIX 290414
RWRLA
LOUISIANA WEATHER ROUNDUP
NATIONAL WEATHER SERVICE NEW ORLEANS LA
1100 PM CDT WED JUN 28 2017

NOTE: "FAIR" INDICATES FEW OR NO CLOUDS BELOW 12,000 FEET WITH NO
      SIGNIFICANT WEATHER AND/OR OBSTRUCTIONS TO VISIBILITY.
      SKY/WX - SKY CONDITION AND SIGNIFICANT WEATHER.
      TMP - AIR TEMPERATURE.    DP   - DEWPOINT TEMPERATURE.
      RH  - RELATIVE HUMIDITY.  PRES - PRESSURE.
      HX  - HEAT INDEX.         WCI  - WIND CHILL INDEX.

*  THESE STATIONS ARE NOT NWS OR FAA STATIONS AND ARE NOT UNDER
   NWS QUALITY CONTROL.

LAZ040-048-061>063-065-066-069-290500-
SOUTHEAST LOUISIANA

CITY           SKY/WX    TMP DP  RH WIND       PRES   REMARKS
N.O. INTL ARPT CLOUDY    76  70  82 SE7       30.00R
N.O. LAKEFRONT CLOUDY    79  75  87 SE9       30.00R
N.O. DOWNTOWN*   N/A     79  74  84 VRB5        N/A
RESERVE*       MOCLDY    77  70  79 S12       30.00R
SLIDELL        CLOUDY    75  73  93 CALM      30.00S
BATON ROUGE    PTCLDY    74  73  97 E8        29.97S
BOOTHVILLE     CLOUDY    79  76  90 SE7       30.02R
BELLE CHASSE   CLOUDY    75  72  90 S6        29.99R FOG
BOGALUSA*      FAIR      75  70  83 CALM      30.03S
GALLIANO*      MOCLDY    73  70  88 SE3       29.99R
NEW ROADS*       N/A     74  72  91 SE6       29.97R
GONZALES*      LGT RAIN  75  73  96 SE8       29.98R
HAMMOND*       CLOUDY    75  70  83 E7        30.00R
HOUMA*         NOT AVBL
PORT FOURCHON* PTCLDY    79  73  83 SE16      29.99R

$$

LAZ041-044-053-054-290500-
SOUTHWEST LOUISIANA

CITY           SKY/WX    TMP DP  RH WIND       PRES   REMARKS
LAKE CHARLES   MOCLDY    75  75 100 E8        29.91R
LAFAYETTE      CLOUDY    75  74  96 VRB6      29.96R
PATTERSON      CLOUDY    74  73  97 E7        29.99R
SALT POINT       N/A     76  74  93 E6        29.95R
NEW IBERIA     CLOUDY    75  72  90 E8        29.97R
CHENAULT AIRPK NOT AVBL

$$

LAZ027-028-290500-
CENTRAL LOUISIANA

CITY           SKY/WX    TMP DP  RH WIND       PRES   REMARKS
FORT POLK      CLOUDY    75  72  89 SE9       29.92R
ALEXANDRIA INT PTCLDY    75  72  90 SE12      29.93S
ALEXANDRIA     PTCLDY    73  72  96 E3        29.96R

$$

LAZ001-002-290500-
NORTHWEST LOUISIANA

CITY           SKY/WX    TMP DP  RH WIND       PRES   REMARKS
SHREVEPORT     CLEAR     79  72  79 SE9       29.91R
BARKSDALE AFB  CLEAR     76  71  86 SE8       29.91R
DTN SHREVEPORT CLEAR     81  71  71 SE10G18   29.91R

$$

LAZ014-016-290500-
NORTHEAST LOUISIANA

CITY           SKY/WX    TMP DP  RH WIND       PRES   REMARKS
MONROE         CLEAR     77  71  82 CALM      29.96R
TALLULAH       PTCLDY    75  71  87 SE6       29.97S

$$





USA.gov is the U.S. government's official web portal to all federal, state and local government web resources and services.